CW9692 Birdsville MD US current weather conditions

sailwx.info

Wind from 302 at 2 knots gusting 5

Air temperature 3.3° C
Dewpoint -7.2° C

Last reported at 2019-Dec-11 20:46 UTC.
Time now 2019-Dec-11 21:37 UTC

Location: N 38°54' W 076°36'.
View on Google Maps.

See reports from other nearby stations

  
Tides and Currents Weather Stations Pressure Air Temp Water Temp Dewpoint Dewpoint Depression Visibility Wind Speed Wind Dir Waves Ship Positions
date/time (UTC)wind fromknots sea level pressurealtimeterstation pressurevisibilityair tempwater tempwave heightnotes
2019-Dec-11 20:46 302 2 gusting 5 3.3
2019-Dec-11 20:30 302 4 gusting 8 3.3
2019-Dec-11 20:00 265 6 gusting 11 3.3
2019-Dec-11 19:45 323 3 gusting 9 3.3
2019-Dec-11 19:15 317 5 gusting 9 3.3
2019-Dec-11 19:00 267 5 gusting 9 3.3
2019-Dec-11 18:45 261 1 gusting 10 3.3
2019-Dec-11 18:15 342 6 gusting 13 3.3
2019-Dec-11 18:01 284 4 gusting 12 3.3
2019-Dec-11 17:45 294 4 gusting 9 3.3
2019-Dec-11 17:30 302 6 gusting 10 3.3
2019-Dec-11 17:15 302 4 gusting 11 2.8
2019-Dec-11 16:15 302 5 gusting 11 2.2
2019-Dec-11 16:01 331 6 gusting 12 2.2
2019-Dec-11 15:30 265 4 gusting 8 2.2
2019-Dec-11 15:01 254 5 gusting 13 1.7
2019-Dec-11 13:47 292 2 gusting 8 0.6
2019-Dec-11 13:30 326 3 gusting 8 0.6
2019-Dec-11 13:16 285 2 gusting 7 -0.0
2019-Dec-11 12:30 312 0 gusting 6 -0.0
2019-Dec-11 12:15 296 1 gusting 3 -0.0
2019-Dec-11 12:00 299 0 gusting 5 -0.0
2019-Dec-11 11:47 290 1 gusting 4 -0.0
2019-Dec-11 11:30 292 2 gusting 6 -0.0
2019-Dec-11 11:00 306 2 gusting 5 -0.0
2019-Dec-11 10:46 304 -0.6
2019-Dec-11 10:31 293 -0.6
2019-Dec-11 10:01 325 2 gusting 6 -0.6
2019-Dec-11 09:46 283 1 gusting 6 -0.6
2019-Dec-11 09:30 329 1 gusting 6 -0.6
2019-Dec-11 09:00 346 2 gusting 6 -0.6
2019-Dec-11 08:45 342 3 gusting 9 -0.0
2019-Dec-11 08:15 360 2 gusting 10 0.6
2019-Dec-11 07:45 315 3 gusting 10 1.1
2019-Dec-11 07:15 337 2 gusting 8 1.1
2019-Dec-11 07:01 296 1 gusting 7 1.1
2019-Dec-11 06:46 329 3 gusting 6 1.7
2019-Dec-11 06:15 347 0 gusting 8 1.7
2019-Dec-11 06:00 344 3 gusting 13 2.2
2019-Dec-11 05:30 298 2 gusting 10 2.8
2019-Dec-11 05:01 333 3 gusting 11 3.9
2019-Dec-11 04:15 314 4 gusting 8 4.4
2019-Dec-11 04:01 346 3 gusting 9 5.0
2019-Dec-11 03:45 319 6 gusting 8 5.6
2019-Dec-11 03:30 333 3 gusting 9 5.6
2019-Dec-11 03:16 323 3 gusting 8 6.1
2019-Dec-11 02:45 288 4 gusting 10 6.7
2019-Dec-11 02:17 309 4 gusting 13 7.2
2019-Dec-11 02:01 329 1 gusting 6 7.2
2019-Dec-11 01:45 313 3 gusting 8 7.2
2019-Dec-11 01:01 346 1 gusting 7 8.3
2019-Dec-11 00:45 336 5 gusting 13 8.9
2019-Dec-11 00:30 293 2 gusting 18 9.4
2019-Dec-11 00:00 025 2 gusting 6 10.6
2019-Dec-10 23:46 304 10.6
2019-Dec-10 23:01 293 4 gusting 11 11.1
2019-Dec-10 22:45 304 3 gusting 7 11.7
2019-Dec-10 22:16 310 0 gusting 4 11.7
2019-Dec-10 22:01 274 12.2
2019-Dec-10 21:46 274 12.2
2019-Dec-10 21:30 274 12.2
2019-Dec-10 21:16 299 12.8
2019-Dec-10 21:00 305 4 gusting 9 12.8
2019-Dec-10 20:46 294 3 gusting 10 13.3
2019-Dec-10 20:30 274 1 gusting 7 13.9
2019-Dec-10 20:01 255 14.4
2019-Dec-10 19:30 240 15.0
2019-Dec-10 19:16 238 15.0
2019-Dec-10 19:00 242 15.0
2019-Dec-10 18:31 277 1 gusting 6 15.0
2019-Dec-10 18:15 251 15.0
2019-Dec-10 18:02 245 15.0
2019-Dec-10 17:46 223 0 gusting 6 15.0
2019-Dec-10 17:16 223 0 gusting 4 15.0
2019-Dec-10 16:46 265 15.0
2019-Dec-10 16:31 237 0 gusting 6 14.4
2019-Dec-10 15:45 240 3 gusting 8 14.4
2019-Dec-10 15:31 227 0 gusting 5 14.4
2019-Dec-10 15:00 202 15.0
2019-Dec-10 14:45 235 1 gusting 8 15.0
2019-Dec-10 14:30 226 1 gusting 9 15.0
2019-Dec-10 14:00 243 1 gusting 11 14.4
2019-Dec-10 13:46 231 3 gusting 10 14.4
2019-Dec-10 13:30 210 2 gusting 13 14.4
2019-Dec-10 13:15 232 2 gusting 13 13.9
2019-Dec-10 13:00 236 3 gusting 10 13.9
2019-Dec-10 12:45 238 1 gusting 8 13.9
2019-Dec-10 12:15 238 13.9
2019-Dec-10 12:00 222 1 gusting 8 13.3
2019-Dec-10 11:00 243 3 gusting 12 13.3
2019-Dec-10 10:15 215 5 gusting 15 13.3
2019-Dec-10 10:00 244 1 gusting 8 13.3
2019-Dec-10 09:30 265 4 gusting 12 12.8
2019-Dec-10 09:16 245 2 gusting 10 12.8
2019-Dec-10 08:15 248 3 gusting 9 12.8
2019-Dec-10 08:00 237 3 gusting 11 12.2
2019-Dec-10 07:30 177 3 gusting 12 12.2
2019-Dec-10 06:45 231 4 gusting 12 12.2
2019-Dec-10 06:31 196 1 gusting 10 12.2
2019-Dec-10 06:15 246 1 gusting 10 12.2
2019-Dec-10 05:45 236 5 gusting 12 11.7
2019-Dec-10 05:30 229 3 gusting 13 11.7
2019-Dec-10 04:45 250 2 gusting 12 12.2
2019-Dec-10 04:30 249 5 gusting 13 12.2
2019-Dec-10 04:01 225 7 gusting 19 12.8
2019-Dec-10 03:45 275 7 gusting 15 12.8
2019-Dec-10 03:30 259 4 gusting 12 12.8
2019-Dec-10 03:15 229 2 gusting 13 12.8
2019-Dec-10 02:45 184 3 gusting 16 12.2
2019-Dec-10 02:30 213 3 gusting 12 12.2
2019-Dec-10 02:01 188 4 gusting 12 11.1
2019-Dec-10 01:45 227 2 gusting 7 11.1
2019-Dec-10 01:15 228 0 gusting 6 10.6
2019-Dec-10 01:00 227 10.6
2019-Dec-10 00:15 229 1 gusting 9 10.0
2019-Dec-10 00:00 195 0 gusting 8 10.0
2019-Dec-09 23:30 205 0 gusting 8 9.4
2019-Dec-09 23:15 202 8.9
2019-Dec-09 23:00 189 8.9
2019-Dec-09 22:30 171 8.3
2019-Dec-09 22:15 167 8.3
2019-Dec-09 22:00 168 8.3
2019-Dec-09 21:46 168 0 gusting 3 8.3
2019-Dec-09 21:30 183 8.3
2019-Dec-09 21:15 202 0 gusting 3 8.3